Tonopah, NV

5:49 PM PDT on May 23, 2017 (GMT -0700)
Tonopah

Weather History for KTPH - July, 2013

Change the Weather History Date:

Wednesday, July 24, 2013

  Actual Average Record
Temperature  
Mean Temperature 77 °F 75 °F  
Max Temperature 91 °F 93 °F 101 °F (1980)
Min Temperature 62 °F 58 °F 45 °F (1987)
Degree Days  
Heating Degree Days 0 0  
Month to date heating degree days 0 0  
Since 1 June heating degree days 3 50  
Since 1 July heating degree days 0 0  
Cooling Degree Days 12 10  
Month to date cooling degree days 329 228  
Year to date cooling degree days 604 400  
Since 1 June cooling degree days 581 373  
Growing Degree Days 26 (Base 50)    
Moisture  
Dew Point 51 °F    
Average Humidity 52    
Maximum Humidity 84    
Minimum Humidity 19    
Precipitation  
Precipitation 0.00 in 0.02 in 0.64 in (1956)
Month to date precipitation 0.44 0.32  
Year to date precipitation 1.39 3.13  
Sea Level Pressure  
Sea Level Pressure 29.92 in    
Wind  
Wind Speed 6 mph (North)    
Max Wind Speed 15 mph    
Max Gust Speed 18 mph    
Visibility 10 miles    
Events      
T = Trace of Precipitation, MM = Missing Value Source: NWS Daily Summary

Daily Weather History Graph

Daily Weather History Graph

Search for Another Location

Airport or City:

Trip Planner

Search our weather history database for the weather conditions in past years. The results will help you decide how hot, cold, wet, or windy it might be!

Date:

Astronomy

Jul. 24, 2013 Rise Set
Actual Time 5:44 AM PDT 8:04 PM PDT
Civil Twilight 5:14 AM PDT 8:34 PM PDT
Nautical Twilight 4:38 AM PDT 9:10 PM PDT
Astronomical Twilight 3:57 AM PDT 9:51 PM PDT
Moon 9:16 PM PDT 8:07 AM PDT
Length of Visible Light 15h 19m
Length of Day
14h 19m
Waning Gibbous, 94% of the Moon is Illuminated
Jul 24
Waning Gibbous
Jul 29
Last Quarter
Aug 6
New
Aug 14
First Quarter
Aug 20
Full

Hourly Weather History & Observations

Time (PDT) Temp. Dew Point Humidity Pressure Visibility Wind Dir Wind Speed Gust Speed Precip Events Conditions
12:56 AM 64.9 °F 57.9 °F 78% 29.96 in 10.0 mi Calm Calm - N/A   Mostly Cloudy
1:56 AM 64.9 °F 57.9 °F 78% 29.96 in 10.0 mi North 11.5 mph - N/A   Clear
2:56 AM 64.9 °F 57.9 °F 78% 29.94 in 10.0 mi North 5.8 mph - N/A   Clear
3:56 AM 63.0 °F 57.9 °F 84% 29.94 in 10.0 mi NNW 3.5 mph - N/A   Clear
4:56 AM 63.0 °F 57.0 °F 81% 29.97 in 10.0 mi North 9.2 mph - N/A   Clear
5:56 AM 62.1 °F 55.9 °F 80% 29.98 in 10.0 mi North 8.1 mph - N/A   Clear
6:56 AM 64.9 °F 55.9 °F 73% 29.99 in 10.0 mi NNE 5.8 mph - N/A   Clear
7:56 AM 69.1 °F 57.9 °F 68% 29.98 in 10.0 mi ENE 5.8 mph - N/A   Clear
8:56 AM 71.1 °F 57.0 °F 61% 29.99 in 10.0 mi Calm Calm - N/A   Clear
9:56 AM 75.0 °F 53.1 °F 46% 29.99 in 10.0 mi Calm Calm - N/A   Clear
10:56 AM 80.1 °F 52.0 °F 38% 29.97 in 10.0 mi Variable 3.5 mph - N/A   Clear
11:56 AM 82.0 °F 52.0 °F 35% 29.96 in 10.0 mi Calm Calm - N/A   Clear
12:56 PM 84.0 °F 48.9 °F 29% 29.94 in 10.0 mi Variable 3.5 mph - N/A   Clear
1:56 PM 86.0 °F 48.0 °F 27% 29.91 in 10.0 mi NNW 8.1 mph - N/A   Partly Cloudy
2:56 PM 88.0 °F 45.0 °F 22% 29.89 in 10.0 mi Variable 6.9 mph - N/A   Clear
3:56 PM 88.0 °F 42.1 °F 20% 29.88 in 10.0 mi North 6.9 mph - N/A   Clear
4:56 PM 89.1 °F 43.0 °F 20% 29.86 in 10.0 mi WNW 6.9 mph - N/A   Clear
5:56 PM 89.1 °F 45.0 °F 22% 29.84 in 10.0 mi North 4.6 mph - N/A   Clear
6:56 PM 89.1 °F 45.0 °F 22% 29.84 in 10.0 mi NNW 8.1 mph - N/A   Clear
7:56 PM 86.0 °F 44.1 °F 23% 29.84 in 10.0 mi North 8.1 mph - N/A   Clear
8:56 PM 82.9 °F 44.1 °F 25% 29.86 in 10.0 mi NNW 6.9 mph - N/A   Clear
9:56 PM 80.1 °F 45.0 °F 29% 29.87 in 10.0 mi North 4.6 mph - N/A   Clear
10:56 PM 78.1 °F 46.0 °F 32% 29.86 in 10.0 mi North 9.2 mph - N/A   Clear
11:56 PM 75.0 °F 46.9 °F 37% 29.87 in 10.0 mi North 5.8 mph - N/A   Clear